This demonstration page uses our WeatherBlox Daily Observations layout. Learn more.

Left ArrowRight Arrow

44.8408, -93.29828

Hourly Observations for May 22, 2022

Temp ( °F °C ) Dew Point ( °F °C ) Humidity (%) Winds ( mph kmh ) Pressure ( in mb ) Visibility ( mi km ) Precip ( " mm )
12:53 am 00:53 Partly Cloudy 45 7.2 28 -2.2 52 52 NNW 7 11 30.23 1024 10 16 0.00 0.00
1:53 am 01:53 Clear 42 5.6 28 -2.2 58 58 WNW 5 7 30.23 1024 10 16 0.00 0.00
2:53 am 02:53 Mostly Cloudy 41 5 29 -1.7 62 62 WNW 6 9 30.23 1024 10 16 0.00 0.00
3:53 am 03:53 Mostly Cloudy 43 6.1 30 -1.1 60 60 WNW 6 9 30.24 1024 10 16 0.00 0.00
4:53 am 04:53 Mostly Clear 42 5.6 30 -1.1 62 62 W 3 6 30.24 1024 10 16 0.00 0.00
5:53 am 05:53 Cloudy 43 6.1 31 -0.6 63 63 W 3 6 30.26 1025 10 16 0.00 0.00
6:53 am 06:53 Cloudy 44 6.7 34 1.1 68 68 NW 3 6 30.28 1026 10 16 0.00 0.00
7:53 am 07:53 Mostly Cloudy 47 8.3 34 1.1 61 61 NW 12 19 30.30 1026 10 16 0.00 0.00
8:53 am 08:53 Mostly Cloudy 49 9.4 33 0.6 55 55 NW 12 19 30.33 1027 10 16 0.00 0.00
9:53 am 09:53 Mostly Cloudy 50 10 31 -0.6 48 48 NNW 10 17 30.35 1028 10 16 0.00 0.00
10:53 am 10:53 Mostly Cloudy 52 11.1 30 -1.1 43 43 NW 17 28 30.35 1028 10 16 0.00 0.00
11:53 am 11:53 Mostly Cloudy 54 12.2 30 -1.1 40 40 NW 13 20 30.36 1028 10 16 0.00 0.00
12:53 pm 12:53 Mostly Cloudy 55 12.8 30 -1.1 38 38 NNW 15 24 30.36 1028 10 16 0.00 0.00
1:53 pm 13:53 Mostly Cloudy 57 13.9 28 -2.2 33 33 N 15 24 30.35 1028 10 16 0.00 0.00
2:53 pm 14:53 Mostly Cloudy 57 13.9 28 -2.2 33 33 NW 10 17 30.35 1028 10 16 0.00 0.00
3:53 pm 15:53 Mostly Cloudy 57 13.9 29 -1.7 34 34 N 9 15 30.34 1028 10 16 0.00 0.00
4:53 pm 16:53 Mostly Cloudy 57 13.9 28 -2.2 33 33 VRB 5 7 30.34 1027 10 16 0.00 0.00
5:53 pm 17:53 Mostly Cloudy 56 13.3 28 -2.2 34 34 NNE 3 6 30.34 1027 10 16 0.00 0.00
6:53 pm 18:53 Mostly Cloudy 58 14.4 28 -2.2 32 32 NW 9 15 30.33 1027 10 16 0.00 0.00
7:53 pm 19:53 Mostly Cloudy 56 13.3 27 -2.8 33 33 WSW 6 9 30.33 1027 10 16 0.00 0.00
8:53 pm 20:53 Mostly Cloudy 56 13.3 27 -2.8 33 33 Calm 30.33 1027 10 16 0.00 0.00
9:53 pm 21:53 Mostly Cloudy 53 11.7 33 0.6 47 47 SSE 5 7 30.35 1028 10 16 0.00 0.00
10:53 pm 22:53 Mostly Clear 50 10 32 0 50 50 SSE 5 7 30.35 1028 10 16 0.00 0.00
11:53 pm 23:53 Mostly Clear 48 8.9 32 0 54 54 SSE 7 11 30.36 1028 10 16 0.00 0.00

Powered by AerisWeather